Regional Weather Roundup
Issued by NWS

Home | Current Version | Previous Version | Text Only | Print | Product List | Glossary Off
Versions: 1 2 3 4 5 6 7 8 9 10 11 12 13 14 15 16 17 18 19 20 21 22 23 24 25 26 27

000
ASUS45 KSLC 270210
RWRUT

UTAH REGIONAL WEATHER ROUNDUP
NATIONAL WEATHER SERVICE SALT LAKE CITY UT
800 PM MDT TUE JUL 26 2016

UTZ001>011-023>025-270300-

NORTHERN UTAH

CITY           SKY/WX    TMP DP  RH WIND       PRES   REMARKS
BRIGHAM CITY     N/A     94  26   9 S10       29.97S
HILL AFB       CLEAR     94  21   7 W5        30.03F
LOGAN          PTCLDY    94  27   9 S10       29.98S
OGDEN          CLEAR     94  26   9 SW5       29.99S
PROVO AIRPORT  CLEAR     91  32  12 NW6       30.01R
SALT LAKE CITY PTCLDY    98  22   6 NE7       29.97F HX  91
VERNAL         CLOUDY    80  40  23 S7        30.12R
WENDOVER       CLEAR     97  32  10 NW16      29.99R HX  91
HEBER CITY     PTCLDY    90  32  12 CALM      30.11R

$$

UTZ012>022-026-027-270300-

SOUTHERN/CENTRAL UTAH

CITY           SKY/WX    TMP DP  RH WIND       PRES   REMARKS
BLANDING       MOCLDY    78  48  34 SW5       30.23S
BRYCE CANYON   PTCLDY    68  42  38 S5        30.33R
CEDAR CITY     PTCLDY    90  39  16 SW9       30.11R
DELTA          CLEAR     95  23   7 NE7       30.01R
MILFORD        PTCLDY    96  33  11 S8        30.02S HX  91
MOAB/CYNLANDS  MOCLDY    91  43  18 E13G25    30.05R
PRICE          PTCLDY    86  33  15 SE7       30.15R
ST GEORGE      PTCLDY   104  46  14 S12G18    29.88R HX 100

$$

REGIONAL REPORTS     COLORADO/ARIZONA

CITY           SKY/WX    TMP DP  RH WIND       PRES   REMARKS
CRAIG, CO      CLOUDY    73  47  39 CALM      30.23F
GRAND JUNCTION PTCLDY    88  40  18 E8        30.10F
RIFLE          CLOUDY    82  42  24 N6        30.18F
MONTROSE       CLOUDY    80  45  28 E8        30.19R
CORTEZ         CLOUDY    85  43  22 N7        30.16R
PAGE, AZ       CLEAR     95  41  15 SW7       30.00S HX  91
GRAND CANYON   PTCLDY    82  45  27 VRB5      30.26R
KINGMAN        PTCLDY   100  46  16 SW10      29.93R HX  96
FLAGSTAFF      PTCLDY    74  55  51 CALM      30.27S

$$

REGIONAL REPORTS    NEVADA/IDAHO/WYOMING

CITY           SKY/WX    TMP DP  RH WIND       PRES   REMARKS
LAS VEGAS, NV  PTCLDY   109  38   9 E7        29.75R HX 102
ELY            CLEAR     92  14   5 W6        30.15S
ELKO           SUNNY     94  11   4 W12       30.08R
POCATELLO, ID  CLEAR     85  42  22 N14       30.03R
BURLEY         CLEAR     83  47  28 W8        30.00R
EVANSTON, WY   CLEAR     82  17   9 W14       30.25R
ROCK SPRINGS   CLOUDY    80  28  15 W3        30.21R
KEMMERER         N/A    N/A N/A N/A NW10      30.26R

$$




USA.gov is the U.S. government's official web portal to all federal, state and local government web resources and services.